BREEZE-M DEB (TANK), 40386

Orbit data source: Space-Track

BREEZE-M DEB (TANK), 40386 is space debris in HEO originally from a launch on Sun, 01 Feb 2015 UTC launched from the Tyuratam Missile And Space Complex (TTMTR). Debris objects in space refer to the collection of defunct objects orbiting the Earth. Examples of debris include non-operational satellites, rocket bodies, and fragments generated from explosions, collisions, or faulty payload assembly.

Loading next visibility...
BREEZE-M DEB (TANK) details
Identifier
40386, 2015-005C
Orbit
HEO
Last TLE update22 hours ago
Origin
Flag of CISKhrunichev (CIS)
ManufacturerKhrunichev
MissionSpacecraft
Bus & MotorBRIZ TANK, Unknown motor
Mass~1,000 kg wet, 1,000 kg dry
Launch date (UTC)
2015-02-01 (10 years ago)
Launch vehicleUnknown
Launch site
Tyuratam Missile And Space Complex (TTMTR)
Object type
Payload
Rocket body
Debris
Shape & HBRTorus, 4 m
Radar Cross Section8.218 m², Large (>1 m²)

Expand to show TLE details & history

TLE from 22 hours ago
0 BREEZE-M DEB (TANK)
1 40386U 15005C   24360.61537818  .00004982  00000-0  28311-2 0  9996
2 40386  50.7032 100.0793 5114464 188.4290 157.8936  5.32511548187017
Epoch: 2024-12-25T14:46Z
Definitive object data (Epoch: 2024-12-25T14:46:08.674Z)
Latitude-0°
Longitude143.93679°
Altitude14,330.979 km
Speed3.118 km/s
True Right ascension06h 40m 19s
True Declination0° 00' 00"
Sunlit
Object was in daylight at TLE epoch
Visualization TLE readout
Latitude-10.97465°
Longitude134.12193°
Altitude12,936.877 km
Speed3.536 km/s
Apparent Right ascension05h 03m 54s
Apparent Declination-21° 19' 44"
Sunlit
Object is in daylight
Visualization observer readout
Local Sidereal Time12:12:35
Azimuth263.431° W
Elevation-26.381°
Doppler factor1
Orbital elements
Apogee altitude14,559.362 km
Perigee altitude389.613 km
Semi-major axis13,852.624 km
Eccentricity0.5114464
Inclination50.7032°
RAAN100.0793°
Arg. of periapsis188.429°
True anomaly171.62276°
Mean anomaly157.8936°
Eccentric anomaly165.31984°
Mean motion1.33121 °/min
BSTAR0.0028311
Orbital period270.43 mins
Loading maneuver chart data...
Loading historical data...
Loading historical data...
Loading historical data...
Loading historical data...
Loading historical data...
Loading historical data...
Loading historical data...
Other satellites on launch #5 in the year 2015 (2015-02-01 UTC)

BREEZE-M DEB (TANK) Visibility forecast

Observer location: undefined°, undefined

Span
Click to sort rows by Start time (UTC) header in descending order
Start Az.
Max El. time (UTC)
Max El. Az.
Max El.
End time (UTC)
End Az.
54 mins2024-12-26 14:45:00.926Z292.617° NW2024-12-26 15:31:00.926Z17.709° NNE43.708°2024-12-26 15:39:00.926Z107.391° ESE
166 mins2024-12-27 06:37:00.926Z187.899° SSW2024-12-27 08:41:00.926Z121.898° SE43.825°2024-12-27 09:23:00.926Z54.316° ENE
21 mins2024-12-27 12:30:00.926Z268.01° W2024-12-27 12:51:00.926Z274.302° WNW16.522°2024-12-27 12:51:00.926Z274.302° WNW
|